Tracking 19909 objects as of 22-Oct-2019
HD Live streaming from Space Station
objects crossing your sky now

OPS 9322 (IDSCS 9)

Track OPS 9322 (IDSCS 9) now!
OPS 9322 (IDSCS 9) is classified as:


NORAD ID: 2649
Int'l Code: 1967-003B
Perigee: 33,547.4 km
Apogee: 33,827.9 km
Inclination: 3.9 °
Period: 1,329.9 minutes
Semi major axis: 40058 km
RCS: 0.1995 m2 (medium)
Launch date: January 18, 1967
Source: United States (US)
Launch site: AIR FORCE EASTERN TEST RANGE (AFETR)
aabbcc
Your satellite tracking list
Your tracking list is empty




NASA's NSSDC Master Catalog

Two Line Element Set (TLE):
1  2649U 67003B   19294.82343257 -.00000122 +00000-0 +00000-0 0  9992
2  2649 003.9034 057.8465 0035006 053.9136 308.2460 01.08282504113129
Source of the keplerian elements: AFSPC